Location: Bakov nad Jizerou
(50.4784°N, 14.9394°E)
Time: 09:31:36
(UTC+00:00)

Cosmos 2333 - Pass Details

Date: 16 June 2021
Orbit: 832 x 864 km, 70.9° (Epoch: 04 August)

Event Time Altitude Azimuth Distance (km) Brightness Sun altitude
Exits shadow 20:57:26 - 190° (S) 2,771 6.4 -11.2°
Reaches altitude 10° 20:58:11 10° 189° (S) 2,492 6.2 -11.3°
Maximum altitude 21:03:46 56° 112° (ESE) 1,016 4.4 -11.7°
Drops below altitude 10° 21:09:20 10° 36° (NE) 2,490 7.0 -12.1°
Sets 21:11:50 0° 33° (NNE) 3,425 7.8 -12.3°
